sat.trackr.live / text

‹ back to catalog

STARLINK-2036

NORAD 47652 · 2021-012AJ

PAYLOAD ACTIVE UNKNOWN

§ Identity

Operator
Country
US
Launch date
2021-02-16
Launch site
AFETR
Launch vehicle
Mass (kg)
RCS (m²)

Purposes: comms

External: N2YO · Heavens-Above · Gunter

§ Orbital elements

Epoch: 2026-05-25T00:48:12.209760Z

Period
92.62 min
Inclination
53.1554°
Eccentricity
0.0007740
Mean motion
15.54737650 rev/d
Perigee alt
397.7 km
Apogee alt
408.2 km
Semi-major
6,781.1 km
B*
1.1902e-3
RAAN
59.7462°
Arg perigee
93.0664°
Mean anomaly
267.1233°
Rev number
29,191

§ Raw data

STARLINK-20361 47652U 21012AJ  26145.03347465  .00080877  00000+0  11902-2 0  99942 47652  53.1554  59.7462 0007740  93.0664 267.1233 15.54737650291917

JSON: /api/v1/satellites/47652 · /tle

For live sub-satellite position, see the globe view (requires WebGL).

§ Visibility from observer

Set your observer location to see the next 7 days of passes ≥ 10°. The values pass through the URL so the page stays shareable.

No JS? Fill the form by hand. The geolocation button needs JavaScript.